Regional Weather Roundup
Issued by NWS

Home | Current Version | Previous Version | Text Only | Print | Product List | Glossary Off
Versions: 1 2 3 4 5 6 7 8 9 10 11 12 13 14 15 16 17 18 19 20 21 22 23 24 25 26 27 28 29 30 31 32 33 34 35 36 37 38 39 40 41 42 43 44 45 46 47 48 49 50

505
ASUS45 KTFX 050710
RWRMT
MONTANA REGIONAL WEATHER ROUNDUP
NATIONAL WEATHER SERVICE GREAT FALLS MT
1200 AM MST MON DEC 05 2016

NOTE: "FAIR" INDICATES FEW OR NO CLOUDS BELOW 12000 FEET WITH NO
SIGNIFICANT WEATHER AND/OR OBSTRUCTIONS TO VISIBILITY.

MTZ001>007-043-050800-
WEST OF THE DIVIDE

CITY           SKY/WX    TMP DP  RH WIND       PRES   REMARKS
KALISPELL      LGT SNOW  25  22  88 N20       29.74R VSB 3/4 WCI  11
MISSOULA       LGT SNOW  27  23  85 W5        29.81R FOG
BUTTE          CLOUDY    19  10  68 NW13      29.67R WCI   6
MULLAN PASS    LGT SNOW  13  10  88 NW8G22    29.68R FOG     WCI   2
ANACONDA         N/A     21   7  53 SW13      29.72R WCI   9
DEER LODGE       N/A     25   9  50 SW9G17    29.73R WCI  15
EUREKA           N/A     25  25 100 SW6       29.78R WCI  18
HAMILTON         N/A     27  16  63 CALM      29.82R
LIBBY            N/A     28  25  86 NW8       29.77R WCI  20
$$

MTZ008-052>055-050800-
SOUTHWEST MONTANA

CITY           SKY/WX    TMP DP  RH WIND       PRES   REMARKS
BOZEMAN        CLOUDY    30  14  51 W20       29.65R WCI  17
DILLON         CLOUDY    25   5  42 NW22G30   29.68R WCI  10
W YELLOWSTONE  LGT SNOW  25  25 100 SW8G16    29.56R VSB 3/4 WCI  16
ENNIS          CLOUDY    27  10  50 W12G17    29.71R WCI  16
THREE FORKS      N/A     30  30 100 W13       29.69R WCI  20
$$

MTZ009-010-012-014-046-048-049-054-050800-
EAST SLOPES AND CENTRAL MONTANA

CITY           SKY/WX    TMP DP  RH WIND       PRES   REMARKS
CUT BANK       CLOUDY    18  14  84 NW10      29.75R WCI   6
GREAT FALLS    LGT SNOW  20  17  88 NW9       29.75R FOG     WCI   9
MALMSTROM AFB  FLURRIES  21  18  88 NW8       29.76R WCI  11
HELENA         LGT SNOW  25  17  72 N17G23    29.71R WCI  12
AUGUSTA        LGT SNOW  18  15  87 N14G22    29.73R WCI   4
BOWMANS CRNR   LGT SNOW  17  16  93 N10       29.71R WCI   5
CHOTEAU          N/A     19  16  86 N12       29.77R FOG     WCI   7
FAIRFIELD      LGT SNOW  20  15  83 N10G18    29.75R WCI   8
POWER          FLURRIES  17  15  91 N9        29.72R WCI   6
RAYNESFORD     LGT SNOW  19  17  91 NW9       29.72R WCI   9
ULM            LGT SNOW  21  19  90 N14       29.76R WCI   8
$$

MTZ011-013-016-021-045-047-050-051-050800-
NORTH CENTRAL MONTANA

CITY           SKY/WX    TMP DP  RH WIND       PRES   REMARKS
HAVRE          LGT SNOW  23  20  88 NW12      29.72R FOG     WCI  12
LEWISTOWN      CLOUDY    20  18  92 NW17G25   29.63R WCI   5
N BAR RANCH      N/A     21  16  79 NW25G37   29.56F WCI   4
CHINOOK          N/A     25  19  80 W8G23     29.71R WCI  16
DENTON         FLURRIES  21  19  90 NW20G37   29.64R WCI   6
GEYSER         FLURRIES  21  14  75 NW6G17    29.68R WCI  13
GRASS RANGE    MOCLDY    23  20  85 W24G36    29.58R WCI   7
JUDITH GAP     SNOWSHWR  18  15  86 N32G40    29.58S WCI  -2
ROY            MOCLDY    23  21  92 MISG      29.60R
STANFORD       LGT SNOW  19  17  93 NW24G30   29.65R FOG     WCI   1
WINIFRED       FLURRIES  22  21  98 MISG      29.65R
$$

MTZ017>020-022>027-061-062-050800-
NORTHEAST MONTANA

CITY           SKY/WX    TMP DP  RH WIND       PRES   REMARKS
GLASGOW        CLOUDY    31  29  92 W26G32    29.51R WCI  17
JORDAN           N/A     31  28  89 W14       29.53R WCI  21
SIDNEY         CLOUDY    30  25  81 SW6       29.48S WCI  24
WOLF POINT     LGT SNOW  31  29  92 SW5       29.50F FOG
PLENTYWOOD       N/A     27  27 100 W3        29.49R VSB 3/4
POPLAR           N/A     28  27  93 NW5       29.50F VSB 3/4
$$

MTZ028>42-056>058-050800-
SOUTHCENTRAL AND SOUTHEAST MONTANA

CITY           SKY/WX    TMP DP  RH WIND       PRES   REMARKS
BAKER          CLOUDY    32  25  75 W12       29.52F WCI  23
BILLINGS       CLOUDY    30  22  72 NW6       29.60R WCI  24
LIVINGSTON     CLOUDY    29  21  72 W13       29.61R WCI  19
MILES CITY     CLOUDY    34  29  82 W16       29.53R WCI  24
BIG TIMBER     CLOUDY    30  12  47 W22G29    29.62R WCI  17
FORSYTH          N/A     34  30  86 W8        29.56R WCI  27
HARLOWTON      MOCLDY    23  18  80 N21       29.58R WCI   8
LAUREL           N/A     31  13  47 CALM      29.64R
ROUNDUP          N/A     31  17  56 W14       29.53S WCI  21
$$

REGIONAL REPORTS...DAKOTAS

CITY           SKY/WX    TMP DP  RH WIND       PRES   REMARKS
WILLISTON      CLOUDY    28  23  81 VRB3      29.48F
MINOT          CLOUDY    14  11  87 NE5       29.56F
DICKINSON      MOCLDY    24  20  84 E9        29.49F WCI  14
BEACH          CLOUDY    36  28  75 SW14      29.52F WCI  27
CROSBY         CLOUDY    27  23  86 E10       29.52F WCI  17
TIOGA          CLOUDY    30  30 100 SE15      29.50F WCI  19
WATFORD CITY   CLOUDY    28  25  86 SE7       29.48F WCI  21
BISMARCK       CLOUDY    16  14  92 E3        29.61F
GRAND FORKS    CLOUDY    27  24  89 NW6       29.69S WCI  20
FARGO          CLEAR     23  19  85 SW8       29.72R WCI  14
BUFFALO SD       N/A     31  21  66 S7        29.45S WCI  24
RAPID CITY     PTCLDY    31  19  61 CALM      29.50F
$$

REGIONAL REPORTS...WYOMING/IDAHO/WASHINGTON

CITY           SKY/WX    TMP DP  RH WIND       PRES   REMARKS
GILLETTE       CLOUDY    37  23  56 SW13      29.50S WCI  29
SHERIDAN       FLURRIES  31  28  89 NW16      29.60R WCI  20
BUFFALO WY     LGT SNOW  31  27  85 N25G35    29.55R VSB 3/4 WCI  17
CODY           FLURRIES  27  24  89 N14       29.57R WCI  16
YELLOWSTONE LA   N/A     23  18  81 W10G21    29.54F WCI  12
IDAHO FALLS    CLOUDY    33  30  88 SW24G39   29.65F WCI  20
SALMON         MOCLDY    27  10  50 NW5       29.81R
BOISE          CLEAR     29  18  63 NW12      30.01R WCI  19
SPOKANE        CLEAR     24  13  62 W8        29.95R WCI  15
$$

REGIONAL REPORTS...ALBERTA

CITY           SKY/WX    TMP DP  RH WIND       PRES   REMARKS
EDMONTON       CLOUDY     3  -2  78 NW9G17    29.94R WCI -11
CALGARY        PTCLDY     9   3  78 N10       29.80R WCI  -6
LETHBRIDGE     CLOUDY    19  14  79 N9        29.82R WCI   9
MEDICINE HAT   CLOUDY    21  14  73 NW16G23   29.77R WCI   7
WATERTON GATE    N/A     18  14  86 SE2         N/A
CARDSTON         N/A     18  16  93 W6          N/A  WCI   9
MILK RIVER       N/A     19  14  79 NW9         N/A  WCI   9
$$

REGIONAL REPORTS...SASKATCHEWAN

CITY           SKY/WX    TMP DP  RH WIND       PRES   REMARKS
SWIFT CURRENT  CLOUDY    18  16  93 NW17G23   29.60R WCI   2
REGINA         MOCLDY    18  16  93 NW9       29.57R WCI   6
SASKATOON      CLOUDY    21  18  86 W9        29.65R WCI  11
CYPRESS HILLS    N/A     14  10  85 NW14G22     N/A  WCI  -1
VAL MARIE        N/A     23  19  86 N22G29      N/A  WCI   8
ROCKGLEN         N/A     25  25 100 N13         N/A  WCI  13
$$




USA.gov is the U.S. government's official web portal to all federal, state and local government web resources and services.